Theta_e
306 307 308 311 311 310 309 309 309 308 308 310 312 314 315 316 314 313 312 312 310 308 307 306 304 303 304 305 305 305 306 306 306 307 307 307 307 308 308 308 308 308 308 309 309 309 309 309 309 309 309 309 309 309 309 310 310 310 310 310 310 311 311 313 313 315 318 321 323 325 327 326 325 325
307 308 308 311 311 309 309 309 308 308 308 308 309 310 312 315 315 314 312 311 311 309 306 305 303 301 301 302 303 304 304 305 305 305 306 305 305 306 307 307 308 308 308 308 308 308 309 309 309 309 309 309 309 309 309 309 309 309 310 310 310 310 311 312 313 314 315 318 321 323 325 326 326 326
309 309 309 311 310 309 308 308 308 309 308 308 309 308 309 312 313 314 312 310 310 309 306 304 302 300 299 300 301 301 301 302 303 303 304 304 304 305 305 305 306 307 307 307 308 308 308 308 308 308 308 308 308 309 308 309 309 309 309 309 310 310 310 311 312 313 314 315 318 321 323 324 324 325
311 310 310 310 309 308 309 308 308 309 308 307 307 308 308 309 310 312 312 310 309 307 305 304 302 300 299 300 299 299 299 299 299 299 300 300 301 301 302 303 303 304 305 306 307 307 307 307 307 307 307 307 308 308 308 308 309 309 309 309 309 310 310 310 311 312 313 314 315 318 321 322 323 324
311 311 311 310 309 308 309 309 308 308 308 307 306 306 307 307 309 310 310 310 309 305 303 303 302 300 300 300 299 299 299 298 299 299 299 299 299 299 299 300 300 301 302 303 303 304 305 306 306 307 307 307 307 307 307 307 307 308 308 308 308 309 309 309 310 311 312 314 315 316 318 319 321 322
311 310 310 310 309 308 308 308 308 308 308 308 307 307 306 306 306 307 307 307 307 306 303 303 302 300 301 301 300 299 299 299 300 300 300 299 299 298 299 299 299 298 299 299 299 300 300 301 302 303 304 304 305 305 306 306 306 306 307 307 307 308 308 308 308 309 310 311 313 315 317 319 320 321
313 311 311 310 310 309 308 307 307 308 308 308 308 306 305 304 305 306 307 308 308 307 305 303 304 302 301 301 300 300 301 301 301 301 301 301 300 300 299 299 299 298 298 298 298 298 298 298 298 298 299 300 300 301 302 303 304 305 305 306 306 306 307 307 307 307 308 309 310 312 315 318 319 320
314 313 313 312 311 311 310 308 307 307 307 308 308 306 304 304 305 307 308 309 308 308 306 304 303 303 302 301 301 301 302 302 302 302 302 302 302 301 301 300 299 299 298 298 297 297 297 297 297 297 297 297 297 297 298 299 299 301 302 303 304 305 305 306 306 306 306 307 307 308 310 312 315 316
314 314 314 314 312 311 311 311 309 308 307 307 307 306 304 304 306 308 309 308 309 309 309 306 303 302 303 302 301 301 302 303 303 303 302 302 301 301 301 300 299 299 298 298 297 297 297 297 297 296 296 296 296 297 297 297 297 297 298 299 301 302 303 304 305 305 305 306 306 306 307 307 308 310
315 314 314 314 314 313 312 312 311 310 308 307 307 307 305 304 306 308 308 308 309 310 309 307 305 303 304 304 303 302 302 302 303 303 303 303 302 301 300 300 300 299 298 297 297 297 297 297 296 296 296 296 295 296 296 296 296 296 297 297 298 299 300 301 303 304 304 305 305 305 305 306 306 306
316 315 314 314 314 314 313 313 313 312 309 308 307 307 306 304 304 306 307 307 309 310 308 308 307 305 304 304 303 302 301 302 302 302 302 303 303 301 301 300 300 299 298 298 298 297 297 296 296 295 295 295 295 295 296 295 295 296 296 297 297 297 298 299 300 301 302 303 304 304 305 305 305 305
318 317 316 315 315 315 314 313 313 313 311 309 308 307 306 305 303 304 305 306 308 309 309 308 307 306 305 304 303 303 303 304 303 301 301 302 303 302 301 301 300 299 298 298 297 297 296 295 295 295 296 296 295 294 295 295 295 295 295 296 296 296 297 297 298 298 299 300 301 302 302 303 303 304
318 317 317 317 317 317 317 315 314 313 312 311 309 308 307 305 304 304 305 306 308 309 310 309 307 307 306 305 304 304 303 303 302 301 300 301 302 301 301 302 301 299 298 297 296 296 296 295 295 296 297 297 295 295 296 296 295 295 295 296 297 297 297 297 297 298 298 299 299 300 300 300 301 301
318 317 317 318 318 318 318 316 315 314 314 312 310 309 308 307 305 304 305 306 308 309 309 309 307 307 307 305 304 303 303 301 301 301 301 301 301 301 301 302 301 299 297 296 295 296 296 295 295 296 297 296 296 296 297 297 295 294 295 296 297 297 298 298 298 298 299 299 300 300 301 301 301 302
318 318 318 318 318 318 317 316 315 315 315 314 312 309 309 308 306 305 305 305 306 306 307 306 305 305 306 304 303 303 302 301 301 300 300 300 300 300 300 301 301 299 296 295 295 296 296 296 296 296 296 296 296 296 296 295 294 295 295 296 297 297 298 298 298 298 298 298 299 300 301 302 303 303
319 319 318 318 318 318 317 316 315 315 315 314 313 311 309 307 305 304 304 304 304 305 305 305 303 303 304 304 303 302 301 301 300 300 300 300 300 299 299 299 299 298 295 294 295 296 296 296 296 296 296 296 296 295 294 294 294 294 295 296 296 297 297 297 297 297 297 297 298 298 300 301 302 303
319 318 318 318 317 317 316 315 314 314 314 313 312 310 307 305 303 303 304 304 304 304 304 304 303 303 303 303 302 301 299 299 299 300 299 299 298 298 298 298 297 296 294 294 295 296 296 296 296 296 296 296 296 295 294 294 293 293 294 295 295 296 297 297 297 297 297 297 297 297 297 299 301 302
318 318 318 318 316 316 315 315 314 312 312 312 310 307 304 302 303 303 304 303 303 303 303 303 302 301 301 300 300 299 298 298 298 298 298 297 297 296 296 295 294 294 294 294 295 295 296 296 296 296 296 296 296 295 295 294 293 293 294 294 294 295 296 296 296 296 296 296 296 296 296 297 298 300
318 318 317 317 315 314 314 314 313 311 310 310 307 303 302 302 302 303 303 302 302 302 302 301 301 300 299 299 298 298 297 296 295 295 294 294 294 295 295 295 295 295 295 294 294 295 295 295 295 296 296 295 295 295 295 294 293 293 294 295 295 295 296 296 295 295 296 295 295 295 295 295 296 298
316 316 315 314 313 313 312 312 311 309 308 307 304 302 302 302 302 302 302 302 302 302 301 300 299 298 297 297 296 295 294 294 294 294 294 294 295 295 295 295 296 296 295 294 294 294 295 295 295 295 295 295 295 295 295 295 294 294 294 295 295 295 295 295 295 295 295 295 295 295 295 295 295 296
313 312 312 311 311 310 309 309 308 306 305 304 303 302 302 302 302 302 302 301 301 300 300 299 297 296 295 295 294 293 293 292 293 293 295 295 295 295 295 296 296 295 295 294 294 294 295 295 294 294 294 294 294 294 295 295 295 295 295 295 295 295 295 295 295 294 294 295 295 294 294 294 294 295
310 310 310 309 309 308 307 306 305 303 303 303 303 302 302 302 302 301 300 300 299 298 297 296 295 294 294 293 293 292 292 292 291 292 294 294 294 294 295 295 295 295 295 294 293 294 294 294 293 293 294 294 294 294 295 295 295 295 295 294 294 294 294 294 294 293 293 294 294 294 294 294 294 294
308 308 307 307 306 306 305 305 303 302 302 302 302 302 302 301 299 298 297 296 295 295 294 294 293 293 293 293 292 292 292 291 291 291 293 293 293 293 294 294 294 294 294 294 293 293 293 293 293 293 293 293 294 294 294 294 294 294 294 294 294 294 293 293 293 293 293 294 294 294 294 293 293 295
306 305 305 304 303 303 303 303 302 302 301 301 301 300 299 298 296 295 294 294 293 293 293 293 293 293 293 292 292 292 292 292 291 291 292 292 292 292 293 293 293 293 294 293 292 292 292 292 293 293 293 293 293 293 293 293 293 293 293 293 293 294 294 294 294 294 294 294 294 294 294 293 293 294
303 302 301 301 301 301 301 301 301 301 300 300 299 298 296 295 294 294 293 293 293 293 293 293 293 293 293 293 293 292 292 292 292 292 292 292 292 292 292 292 292 292 293 292 292 291 291 292 292 292 292 292 292 293 293 293 292 292 292 292 293 293 294 294 295 295 295 295 295 295 295 295 294 294
301 300 299 299 299 299 299 299 299 299 298 298 297 296 295 294 294 293 293 292 292 293 293 293 293 293 293 293 293 292 292 292 292 291 291 291 291 291 291 291 291 291 292 291 291 291 291 291 291 291 292 292 292 292 292 292 292 292 292 292 292 293 293 294 294 295 295 295 295 295 295 295 294 294
301 300 298 298 297 298 298 298 297 297 296 295 294 294 293 293 292 292 292 292 292 292 292 292 293 293 293 292 292 292 292 291 291 291 290 290 290 290 290 290 290 290 290 290 290 290 291 291 291 291 291 291 291 291 291 291 291 291 291 292 292 293 293 293 294 294 294 294 294 295 295 295 295 295
300 298 298 297 296 296 296 295 295 294 294 293 292 292 292 291 291 291 291 291 292 292 292 292 292 292 292 292 291 291 291 290 290 289 289 289 289 289 289 289 289 289 289 289 289 289 290 290 290 290 290 290 291 291 291 291 291 291 291 291 292 292 292 293 293 293 294 294 294 295 295 295 296 296
298 297 297 296 295 295 294 294 293 293 292 292 291 291 290 290 290 290 291 291 291 291 291 291 291 291 291 291 290 290 289 289 289 289 289 289 288 288 288 288 288 288 288 288 288 289 289 289 289 290 290 290 290 290 290 290 291 291 291 291 291 291 292 292 293 293 293 294 294 295 295 296 296 296
297 296 295 294 294 293 293 292 292 292 291 291 290 290 290 290 290 290 290 290 290 291 291 290 290 290 290 289 288 288 288 288 288 288 288 288 288 288 288 288 288 288 288 288 288 288 288 288 289 289 289 289 289 289 290 290 290 290 290 290 291 291 291 292 292 293 293 294 294 295 295 295 295 295
295 295 294 293 293 292 292 292 291 291 290 290 290 290 290 289 289 289 289 289 290 290 289 289 289 288 288 288 288 288 288 288 288 288 287 287 288 288 288 287 288 288 288 288 288 288 288 288 288 288 289 289 289 289 289 289 289 290 290 290 290 291 291 291 292 292 293 293 293 294 294 294 294 294
294 293 293 292 292 292 291 291 291 290 290 289 289 290 290 290 289 289 289 289 289 289 288 288 288 288 287 287 287 288 288 288 288 288 288 288 288 288 288 288 288 288 288 288 288 288 288 288 288 288 288 289 289 289 289 289 289 289 290 290 290 290 291 291 291 292 292 292 293 293 293 293 294 294
293 292 292 292 292 291 291 291 291 290 290 290 290 289 289 289 290 290 290 290 290 289 288 288 288 288 287 288 288 288 288 288 288 288 288 288 288 288 288 288 288 288 289 289 289 289 289 289 289 289 288 288 289 289 289 289 289 289 290 290 290 290 291 291 291 291 292 292 292 292 293 293 293 294
293 292 292 292 291 291 291 291 290 290 290 290 290 289 289 289 289 289 289 290 289 288 288 288 288 288 288 288 288 288 288 288 288 288 288 288 288 288 288 288 288 288 289 289 289 289 289 289 289 289 289 289 289 289 289 289 289 290 290 290 290 290 291 291 291 291 292 292 292 292 292 292 293 293
292 292 292 291 291 291 291 290 290 290 289 289 289 289 289 289 289 289 289 289 289 289 288 288 288 288 288 288 288 288 288 288 288 288 288 288 288 288 288 288 288 288 289 289 289 289 289 289 289 289 289 289 289 289 289 289 289 290 290 290 290 291 291 291 291 292 292 292 292 292 292 292 293 293
292 292 292 291 291 290 290 290 289 289 289 289 289 288 289 289 288 289 289 289 289 289 289 289 288 288 288 288 288 288 288 288 288 288 288 288 288 288 288 288 288 289 289 289 289 289 289 289 289 289 289 290 289 289 290 290 289 290 290 290 290 291 291 291 291 291 291 292 292 292 292 292 293 293
292 291 291 291 290 290 290 289 289 289 289 289 288 288 288 288 288 289 289 289 289 289 289 289 288 288 288 288 288 288 288 288 288 288 288 288 288 288 288 288 289 289 289 289 289 289 289 289 289 289 289 289 289 289 290 290 290 289 290 290 290 290 291 291 291 291 291 291 292 292 292 292 292 292
291 291 291 290 290 290 289 289 289 289 289 288 288 288 287 287 288 289 289 289 289 289 289 289 289 288 288 288 288 288 288 288 289 288 288 288 288 288 288 288 289 289 289 289 289 289 289 289 289 289 289 289 289 289 290 290 290 290 289 289 290 290 290 290 290 290 291 291 291 291 291 291 291 291
291 291 290 290 290 289 289 289 289 289 289 288 288 287 287 287 288 289 289 289 289 289 289 289 289 289 288 288 288 288 288 288 288 288 288 288 288 288 288 288 288 289 289 289 289 289 289 289 289 289 289 289 289 289 289 289 290 289 289 289 289 289 289 289 290 290 290 290 291 291 290 290 290 290
290 290 290 289 289 289 289 289 289 289 288 288 288 286 286 286 287 288 288 289 289 289 289 289 289 289 289 288 288 288 288 288 288 288 288 288 288 288 288 288 288 288 289 289 289 289 289 289 289 289 289 289 289 289 288 288 289 289 289 289 289 289 289 289 290 290 290 291 291 290 290 290 290 290
290 289 289 289 289 289 289 289 289 289 288 288 287 286 284 285 285 286 288 289 289 289 289 289 289 288 288 288 288 288 288 288 288 288 288 288 288 288 288 288 288 288 288 289 289 289 290 290 289 289 289 288 288 288 288 289 289 290 290 290 290 290 290 290 290 290 290 290 290 290 290 290 290 290
289 289 289 289 289 289 289 289 289 288 288 288 287 285 284 284 285 286 287 289 290 289 288 289 289 288 288 288 288 288 288 288 288 288 288 288 288 288 288 288 288 289 289 289 289 289 289 289 289 289 289 288 288 288 289 289 290 290 290 291 291 290 290 290 290 291 290 290 290 290 290 290 290 290
289 289 289 289 289 289 289 288 288 288 287 287 285 284 284 284 285 286 287 289 289 288 288 288 288 288 288 288 288 287 287 287 287 288 288 288 288 288 288 288 289 289 289 289 289 289 289 289 289 289 289 288 288 289 289 290 290 290 290 291 291 290 290 290 290 291 290 290 290 290 290 290 291 291
289 289 289 289 288 288 288 288 287 287 286 286 285 284 283 284 284 286 287 288 287 287 287 287 287 288 287 287 287 287 287 287 287 287 288 288 288 288 288 289 289 289 289 289 289 289 290 289 289 289 289 289 289 289 289 290 290 290 290 291 290 290 289 289 289 289 290 290 290 290 290 290 291 291
289 289 288 288 288 288 288 288 287 286 285 285 285 284 283 283 284 285 287 287 286 286 286 287 286 286 286 286 286 287 287 287 287 287 288 288 288 288 289 289 289 289 289 289 289 290 290 290 290 290 290 289 289 290 290 290 290 290 290 290 290 289 289 288 288 288 289 289 289 290 290 291 291 291
Wind_Speed
7 7 8 9 9 9 10 10 11 11 10 9 8 6 6 7 6 5 4 5 6 7 7 8 10 12 12 13 13 13 12 11 11 10 10 10 10 8 6 6 6 5 4 4 3 3 3 3 4 4 4 4 4 4 6 6 7 8 9 10 11 12 13 15 17 17 17 17 18 19 20 22 24 26
7 7 8 8 8 9 9 10 10 11 11 10 7 6 7 6 5 6 6 4 5 6 7 8 8 10 11 11 11 12 11 10 10 10 10 10 9 7 6 6 6 5 4 3 3 3 3 3 3 3 4 4 5 5 6 7 8 9 9 10 11 12 13 14 15 16 17 17 17 17 18 20 22 24
6 6 7 7 7 8 8 8 8 9 11 11 10 8 7 7 6 8 8 6 4 4 5 6 7 8 10 10 10 10 9 8 8 8 8 8 7 7 7 6 6 5 4 3 3 3 3 3 4 4 5 5 6 7 7 8 9 9 10 10 11 12 13 13 13 14 16 17 17 17 17 19 21 22
4 4 4 5 5 6 6 7 7 8 9 11 11 12 11 10 9 9 9 8 6 4 5 5 5 8 10 10 10 10 10 9 9 8 8 7 7 7 7 7 6 5 4 4 4 4 4 4 5 6 6 7 7 7 8 8 8 9 10 10 11 11 12 13 13 13 14 16 17 17 16 17 19 21
2 2 3 4 4 4 5 6 7 7 8 9 10 12 12 12 11 9 10 10 8 6 5 5 5 7 8 8 9 10 10 10 10 9 8 8 8 9 9 8 7 6 5 5 5 5 5 6 6 7 7 8 8 8 8 8 8 9 9 10 11 11 11 12 13 14 13 14 15 16 16 16 16 17
0 1 2 2 2 2 3 4 5 6 6 6 7 9 9 11 11 11 10 10 8 7 5 4 4 6 7 7 8 10 10 9 9 9 8 9 9 10 10 9 9 8 7 6 6 7 7 8 8 9 10 10 10 10 10 10 10 10 10 11 11 12 12 13 13 14 14 14 14 15 15 15 15 15
4 3 3 3 2 2 2 2 4 4 4 4 6 7 8 10 12 11 10 8 7 7 6 4 3 4 6 6 7 9 10 10 9 9 8 9 10 11 11 11 10 10 8 7 6 7 7 8 9 10 11 12 13 13 13 13 13 13 13 13 14 14 15 15 15 15 15 16 15 15 15 15 15 16
7 7 6 6 5 4 4 3 4 4 4 4 5 6 8 9 11 11 9 7 7 7 6 4 4 3 4 5 7 8 8 9 10 10 10 10 11 13 14 14 13 12 10 9 8 7 7 8 9 11 12 13 14 14 15 15 15 15 15 15 16 16 17 17 17 17 17 16 16 15 15 15 16 16
10 10 9 8 8 8 7 7 6 6 6 6 6 7 7 8 9 8 8 7 7 6 6 5 4 4 3 3 6 7 6 6 7 9 11 12 14 17 17 17 16 14 12 12 12 11 11 12 13 13 13 14 14 14 15 15 15 16 16 16 17 18 18 18 19 19 18 18 17 17 16 16 16 16
13 14 13 11 11 11 11 11 10 10 9 9 8 8 7 8 8 7 7 6 6 6 6 6 5 4 3 2 3 6 7 6 6 8 8 9 13 17 18 18 17 16 15 17 18 18 19 19 19 18 16 14 14 14 14 15 15 16 16 17 18 18 19 19 19 19 20 20 19 19 19 19 18 17
13 14 15 14 13 13 13 14 14 13 13 12 10 10 9 9 8 7 5 5 5 6 6 5 4 4 3 2 1 5 8 6 5 8 8 6 8 13 17 17 15 15 17 18 20 23 25 24 23 23 20 17 15 14 13 13 14 14 15 16 17 18 19 19 20 20 21 21 21 21 21 21 21 21
12 13 14 14 14 14 15 16 16 15 15 15 14 13 12 11 10 7 5 4 4 5 5 4 4 3 2 1 2 4 5 3 4 8 10 8 8 11 14 13 12 14 15 15 19 21 23 24 23 22 19 17 18 17 13 12 12 12 14 15 16 17 17 18 18 19 20 21 22 23 23 23 24 24
11 11 11 13 14 15 15 16 16 16 16 17 17 16 14 13 12 9 7 6 5 4 4 3 3 2 2 1 2 2 3 3 5 8 9 9 9 12 13 10 10 14 16 17 21 22 21 23 22 16 12 14 18 18 14 11 12 12 13 13 14 15 15 15 15 15 16 17 18 20 21 23 24 24
10 10 12 14 14 14 15 14 13 15 17 18 19 19 17 15 14 12 10 7 6 5 3 3 2 1 1 0 1 2 3 4 5 6 6 8 9 11 13 10 8 12 15 18 22 22 20 21 20 14 12 13 15 15 11 11 13 13 12 11 12 12 11 11 11 12 12 13 14 15 17 19 20 22
8 8 11 12 11 12 12 10 9 12 15 16 18 20 19 17 16 14 11 9 7 5 3 2 1 1 1 1 2 2 3 4 4 5 6 7 8 9 10 11 9 10 16 19 19 19 17 15 15 14 13 13 14 14 13 14 14 12 11 11 11 10 9 9 10 11 11 12 12 13 14 15 17 18
5 5 7 9 10 10 11 9 7 9 11 14 17 18 18 17 16 13 11 9 7 5 3 2 2 2 2 2 3 2 4 5 6 7 7 7 8 9 10 11 10 10 16 18 16 16 15 12 11 14 13 11 13 16 18 17 16 13 12 13 12 11 10 10 11 12 12 13 14 14 14 14 16 17
5 4 6 9 11 11 11 9 7 7 8 11 14 16 17 18 16 13 11 9 6 5 3 3 3 4 3 3 4 5 8 8 7 8 8 8 9 9 9 11 13 16 18 15 13 16 16 11 10 14 13 11 11 15 17 19 19 16 14 14 15 14 12 11 12 13 13 14 15 15 16 16 15 16
6 5 6 9 10 11 10 9 7 7 7 8 11 14 17 17 14 11 9 6 4 4 3 3 4 6 6 6 7 9 11 10 8 8 10 10 10 11 13 15 18 19 16 11 11 14 15 12 12 14 13 12 13 14 17 21 21 17 13 14 16 15 13 12 13 13 14 14 15 16 17 17 17 17
7 6 7 8 8 9 8 7 6 6 5 6 11 15 16 14 11 8 7 5 4 3 4 5 6 7 7 7 8 10 11 10 10 10 12 12 12 12 14 15 15 14 11 8 9 14 14 13 13 14 13 14 16 16 17 20 20 14 11 12 13 13 12 12 13 14 14 14 15 15 16 18 18 19
5 5 5 5 6 6 6 6 5 4 3 7 12 15 13 11 8 6 5 4 4 5 5 6 6 7 7 8 9 10 9 9 9 9 10 11 10 10 12 12 12 11 9 8 9 14 14 11 12 15 15 16 17 16 16 16 15 12 10 10 10 10 11 13 13 13 14 14 14 15 16 17 19 20
4 3 3 4 5 6 6 5 4 1 4 9 11 11 10 8 6 4 4 4 5 6 6 6 7 8 9 9 9 9 9 8 7 7 8 8 8 10 12 12 12 11 11 10 11 13 13 10 12 16 16 17 17 17 15 13 12 11 10 10 10 12 14 16 16 16 15 15 15 16 17 17 19 20
4 4 4 5 6 6 5 5 3 3 5 7 8 7 6 5 4 4 4 5 6 6 7 7 8 9 9 9 9 9 9 9 8 8 9 10 10 12 12 13 13 14 12 9 9 12 12 11 13 15 17 17 16 14 12 11 10 11 12 13 14 16 18 19 19 19 19 17 16 17 18 18 19 20
4 5 4 4 4 4 3 3 4 5 6 6 5 4 3 2 3 3 3 4 5 5 6 7 8 8 9 10 10 10 11 11 11 11 11 11 12 13 14 13 13 12 9 7 9 13 16 15 14 15 16 15 12 11 11 12 13 14 15 16 16 17 19 20 18 17 17 17 16 17 18 18 19 18
5 5 5 5 4 4 5 5 5 5 5 4 3 2 1 2 2 2 3 4 5 6 7 8 9 9 10 11 11 10 11 12 12 12 11 11 12 13 14 14 14 13 12 13 14 16 18 18 18 18 16 14 14 15 15 17 17 17 17 17 17 17 18 18 17 16 17 18 18 18 18 18 18 18
6 7 8 7 6 5 5 4 3 2 1 1 1 1 1 1 2 3 4 5 6 7 8 9 9 9 10 10 10 10 10 11 11 11 11 12 12 12 14 16 18 18 18 18 17 17 19 20 20 19 18 18 19 20 19 19 19 18 17 18 18 17 17 17 18 18 18 19 19 18 18 18 18 18
8 9 9 9 7 4 3 1 0 1 2 2 3 2 2 3 3 3 4 5 6 6 7 8 9 9 9 9 10 10 10 10 10 11 12 12 13 14 15 18 20 22 21 20 19 20 21 21 20 19 19 19 20 21 20 19 18 18 18 18 17 17 18 18 19 19 18 18 18 18 18 19 20 18
9 9 9 7 5 3 1 0 0 1 2 2 2 3 3 4 5 5 5 6 6 7 7 8 9 9 9 10 10 10 10 10 11 12 13 14 15 17 18 18 20 22 23 22 21 21 23 23 21 20 20 21 21 20 20 19 19 18 18 19 18 19 19 19 19 19 19 19 18 18 18 19 19 16
10 9 8 6 4 3 2 1 1 2 2 3 3 3 4 5 6 5 5 6 6 7 8 8 9 9 9 10 10 11 12 13 14 15 15 15 15 16 17 17 18 19 20 20 19 19 21 22 21 20 20 21 21 20 19 20 20 19 19 20 19 18 18 18 18 19 18 18 18 18 17 17 16 14
10 8 7 6 5 4 3 3 3 3 4 4 4 5 6 6 6 5 5 6 7 7 8 8 9 10 10 10 11 12 13 14 14 15 14 14 13 14 15 15 15 16 16 16 16 16 17 19 19 19 19 20 21 21 21 21 21 20 19 19 19 18 18 17 18 18 18 18 17 17 16 16 14 13
9 8 7 7 6 5 4 3 3 4 4 5 6 8 8 7 6 6 6 6 7 8 8 9 9 10 10 11 11 12 12 12 12 12 12 13 13 13 14 15 15 15 15 15 15 15 16 17 17 18 18 19 20 21 21 21 21 20 19 19 19 18 17 16 16 16 16 16 16 16 16 16 15 14
10 10 9 7 6 4 3 3 4 5 5 6 6 7 7 6 6 7 7 7 7 8 8 9 9 10 10 11 11 11 11 12 12 11 12 13 13 13 14 15 16 15 15 14 14 14 15 16 16 17 18 19 19 19 19 20 21 21 20 18 18 18 17 17 17 17 16 17 17 17 17 17 16 16
12 11 10 8 6 5 4 4 4 5 5 6 6 6 6 5 6 8 9 8 8 8 8 9 9 10 10 10 11 11 11 12 12 12 12 13 14 14 14 15 16 16 16 15 14 13 13 14 15 16 17 18 18 18 18 19 20 20 20 19 19 19 18 18 18 17 17 17 17 18 18 17 17 17
14 12 9 8 6 5 4 4 4 4 5 5 6 6 6 5 6 7 8 8 8 8 8 9 10 10 11 11 11 12 12 12 13 12 13 14 15 15 15 16 16 17 17 17 15 14 13 13 14 15 16 17 18 18 18 19 20 19 19 19 19 19 18 18 18 18 18 18 18 18 18 18 17 16
13 12 9 7 5 4 4 4 4 4 5 5 5 6 6 5 6 7 8 8 8 8 8 9 10 10 11 12 12 12 12 13 13 13 13 13 14 14 15 16 17 16 17 17 17 16 14 13 13 14 15 16 18 17 18 20 20 19 18 18 18 18 18 17 16 16 16 16 17 17 17 17 17 15
12 10 8 7 5 4 4 4 4 4 5 5 6 6 6 6 6 7 8 8 8 8 9 10 10 10 11 12 12 12 13 13 13 13 13 13 13 14 15 16 17 17 17 17 17 16 15 14 14 14 14 15 15 15 15 18 20 19 17 16 16 16 16 15 14 14 13 14 14 15 15 15 15 13
10 8 7 7 5 4 4 4 3 4 5 5 6 6 7 7 7 8 8 8 8 8 10 11 11 11 11 12 12 13 13 13 13 13 13 13 13 14 15 16 17 17 17 17 17 16 15 14 14 14 14 13 11 10 11 12 14 16 15 15 15 14 14 14 13 13 12 13 13 12 12 13 14 13
10 8 7 7 6 5 4 3 3 4 5 5 6 6 7 7 7 8 9 8 8 9 10 11 11 12 12 12 13 13 12 13 14 14 13 13 13 14 15 16 16 17 17 17 17 16 15 15 14 14 13 10 7 8 10 10 11 12 13 14 14 13 13 13 13 12 12 11 11 10 11 13 14 13
11 9 8 7 6 5 4 4 3 4 4 5 6 6 7 8 8 8 9 9 9 10 10 10 11 12 12 12 13 13 13 14 14 14 13 13 13 14 15 15 16 17 17 17 17 16 15 15 15 15 13 10 7 7 8 10 11 11 11 12 13 14 14 14 14 13 12 10 10 11 14 14 12 10
10 8 8 8 6 5 4 4 3 4 4 5 6 7 8 8 9 9 9 9 9 10 10 10 11 12 12 12 13 14 14 14 14 14 13 13 13 14 15 15 16 17 17 17 17 15 15 15 14 14 13 12 11 11 11 13 14 14 13 13 15 16 15 14 14 14 13 10 9 10 11 9 7 6
10 8 8 8 6 5 4 3 3 3 5 6 7 8 10 10 10 11 10 10 11 11 11 11 11 11 12 13 13 13 14 14 14 14 13 13 14 14 15 16 17 17 17 17 17 16 15 15 13 13 14 14 15 16 16 16 17 16 14 13 13 13 12 11 11 11 11 8 6 6 5 4 3 2
10 9 8 7 6 5 3 3 3 4 5 6 7 10 12 12 12 13 13 14 15 14 12 12 12 12 12 13 13 13 14 15 15 14 14 14 15 15 16 17 17 16 16 16 17 17 15 14 14 15 16 15 14 14 13 12 12 12 11 10 9 9 8 8 9 10 9 7 5 4 3 3 2 1
10 9 8 7 5 4 3 3 4 4 6 7 9 12 13 13 13 14 13 14 16 15 13 13 13 13 13 13 13 13 14 15 15 15 15 15 16 16 16 16 16 15 15 16 17 17 15 13 12 12 13 11 9 9 9 9 10 10 10 8 7 7 7 9 9 9 9 7 4 3 3 2 2 2
10 9 8 6 5 3 3 3 4 5 7 9 11 14 14 13 13 14 14 14 14 13 12 13 14 14 14 13 13 13 14 15 16 17 17 17 17 17 16 16 15 16 16 16 16 15 13 11 10 9 8 8 8 9 10 10 10 9 9 7 6 5 6 8 6 5 7 7 5 5 4 4 3 2
10 8 7 6 4 3 3 4 6 8 10 11 12 14 14 14 14 16 16 14 11 11 11 12 13 13 14 14 13 13 14 15 17 18 17 17 16 16 16 15 15 15 15 14 14 14 12 10 9 8 8 8 7 8 9 9 8 7 7 6 5 3 3 4 3 2 3 3 3 4 5 6 6 4
9 8 6 5 4 3 3 5 7 10 12 13 14 15 15 15 16 17 16 13 10 11 12 12 13 14 14 14 14 14 15 16 17 17 17 16 16 15 15 15 15 15 14 13 12 12 11 9 8 7 7 7 6 7 7 7 6 5 5 4 2 1 2 3 5 6 7 5 3 2 3 4 3 3
Wind_Direction
106 114 114 106 99 93 88 87 88 89 98 126 156 177 174 157 148 142 125 101 83 62 57 66 58 57 69 76 79 79 76 75 74 71 69 68 64 57 49 52 54 52 48 38 25 9 350 341 340 338 335 336 334 323 316 316 313 309 307 303 301 298 292 283 276 272 271 270 265 256 250 248 249 249
95 106 109 105 102 101 96 90 87 85 84 94 117 154 180 182 155 142 131 102 84 69 60 65 61 58 65 70 74 76 73 71 71 69 67 65 62 54 48 49 49 48 46 39 27 12 355 345 339 333 328 324 323 321 319 318 315 312 309 305 302 300 299 294 284 274 268 268 270 263 253 247 248 249
92 100 105 104 103 103 100 94 89 86 85 85 86 99 135 157 142 134 134 119 97 83 75 73 69 68 71 71 70 71 69 66 66 65 64 64 59 51 48 47 45 43 39 30 19 5 353 341 332 330 328 322 319 316 314 313 310 308 307 305 303 300 300 299 295 285 272 266 267 266 260 253 249 249
102 113 114 112 109 102 101 104 101 96 92 90 89 89 96 115 124 123 122 118 113 103 93 90 83 76 75 72 67 66 62 58 57 55 54 54 51 45 39 31 25 21 12 5 356 343 334 325 320 319 320 319 317 313 310 308 306 306 306 305 305 303 302 302 301 296 285 273 268 266 265 262 257 254
117 127 129 125 120 109 106 112 113 113 106 95 94 94 93 101 110 111 110 113 120 119 108 105 93 78 73 66 61 60 57 54 53 50 47 45 44 42 37 22 8 359 346 334 325 317 311 308 304 303 305 306 306 305 303 300 298 297 297 298 300 300 300 301 300 300 295 285 275 269 266 266 264 262
194 161 165 157 143 129 122 125 128 128 123 110 104 102 103 106 108 109 110 113 123 132 130 123 103 81 75 65 53 48 46 48 51 49 45 43 39 36 36 26 7 357 348 332 320 312 306 303 300 296 294 294 294 294 294 292 290 288 286 286 288 291 292 292 292 293 294 291 284 275 269 265 263 262
273 261 229 221 219 199 178 169 162 154 145 137 127 117 113 114 113 112 112 112 121 135 138 137 125 91 74 64 49 40 36 35 38 37 34 32 28 22 23 21 8 359 354 345 332 323 316 313 312 308 302 297 294 292 290 289 287 284 283 281 280 281 282 283 283 282 282 283 281 277 271 265 261 259
268 263 250 248 254 245 226 215 203 193 183 169 157 143 131 127 123 118 114 111 118 131 135 135 134 111 82 63 47 38 30 24 23 22 18 16 16 11 10 10 5 359 356 353 344 332 325 324 323 320 314 307 301 297 295 292 289 286 283 281 279 278 277 277 278 278 276 274 273 272 269 265 262 260
271 263 254 252 257 252 241 234 231 224 214 203 191 176 159 151 142 128 121 116 115 123 131 137 132 116 105 68 38 31 28 21 15 10 5 3 3 2 2 2 359 356 353 348 343 337 332 330 327 322 317 311 306 300 297 294 291 289 286 283 280 278 277 276 275 275 275 273 272 270 268 266 264 262
277 267 259 255 255 252 248 248 249 244 233 223 213 202 188 178 167 155 144 135 128 128 130 135 138 131 125 99 35 21 19 20 15 7 359 352 352 354 355 355 352 350 347 342 339 337 334 332 331 327 322 317 311 304 297 294 291 289 286 284 282 279 277 276 275 274 274 274 273 272 270 268 267 265
282 272 265 263 263 260 253 252 255 251 240 233 228 223 217 204 190 177 166 157 147 143 139 137 143 144 128 107 41 10 13 16 13 7 0 345 341 345 346 347 345 343 342 339 337 335 334 334 334 332 330 328 324 317 303 293 288 285 284 282 280 280 278 277 277 276 275 274 274 274 273 271 270 267
283 275 271 269 269 269 263 256 256 253 245 241 236 230 225 216 205 194 183 186 173 154 151 146 143 149 139 94 22 9 14 11 353 356 353 340 333 336 338 338 336 337 339 336 333 333 331 333 335 335 333 330 330 329 319 304 292 282 280 280 279 280 281 281 281 280 279 278 277 277 277 276 274 271
288 284 280 278 277 279 275 265 259 257 253 250 244 238 233 221 212 206 197 196 196 187 180 164 154 166 161 93 9 357 3 350 337 341 343 336 330 331 332 328 323 330 336 335 331 330 327 329 333 335 327 321 327 333 330 314 298 285 279 279 281 284 286 287 288 287 286 284 283 282 281 279 278 276
295 291 279 276 277 279 281 276 267 260 257 253 249 248 247 237 224 214 204 201 208 217 216 184 173 221 217 75 350 325 322 328 327 329 332 329 328 330 330 327 320 325 333 334 329 325 323 325 328 328 320 316 325 330 321 306 298 288 277 276 283 289 289 288 289 290 292 292 291 290 288 286 284 281
299 293 277 276 280 284 294 300 281 263 259 255 249 247 248 245 235 223 214 215 218 216 210 176 175 254 246 252 297 307 306 313 318 320 320 322 327 330 325 322 318 318 327 330 324 318 319 320 320 319 316 313 317 318 312 309 307 294 276 273 280 282 279 281 285 286 291 294 295 296 296 296 294 290
305 304 291 295 300 304 313 317 293 270 266 258 247 240 237 233 227 221 221 225 225 222 220 217 234 260 256 258 275 288 305 312 313 313 315 316 321 320 312 310 306 306 320 325 318 310 313 313 309 312 311 304 306 311 313 316 314 302 282 272 272 270 266 273 282 286 290 293 294 295 296 297 300 299
307 306 301 306 312 315 319 321 309 292 278 258 243 232 224 216 212 216 222 225 234 244 250 249 257 267 266 261 267 286 305 315 314 311 313 313 311 308 303 301 301 302 311 317 310 303 306 307 303 305 306 299 297 304 307 311 315 310 291 272 268 264 260 270 284 289 293 296 296 294 293 292 295 299
296 299 299 303 311 315 316 317 314 306 288 258 232 215 206 202 203 210 218 221 233 249 261 261 257 263 264 261 275 292 303 308 305 300 303 305 303 300 297 298 300 301 303 305 302 299 301 306 302 299 301 299 298 299 300 305 314 313 290 270 267 262 258 271 286 292 295 298 298 297 294 292 291 292
292 297 300 303 310 315 316 316 315 309 286 240 210 196 191 192 196 201 207 214 225 244 262 264 259 262 268 272 285 295 298 296 293 294 298 299 298 297 297 297 297 296 289 285 292 295 297 303 301 297 299 299 298 299 299 303 311 309 283 270 268 260 260 275 287 291 294 296 297 299 300 298 294 291
313 315 318 321 332 342 342 336 329 310 246 201 188 184 183 186 190 196 206 224 248 266 271 273 275 280 287 291 292 294 294 290 291 295 295 296 295 294 295 294 292 291 282 276 288 292 293 298 298 297 301 301 297 298 298 300 305 299 279 269 263 259 266 277 283 287 290 292 294 298 303 305 302 296
352 356 14 24 24 23 18 10 9 26 183 181 180 182 184 182 186 204 233 254 270 280 282 287 291 293 297 299 299 302 302 299 300 296 291 296 300 296 296 295 294 295 290 285 290 289 287 295 299 297 300 298 295 296 296 296 297 293 286 280 274 273 276 278 279 281 283 285 288 293 299 304 306 303
47 56 57 52 44 40 36 36 62 121 163 175 178 180 182 186 207 234 258 273 283 292 297 300 301 301 304 306 308 309 306 304 305 296 290 299 301 295 293 295 297 297 291 288 294 291 290 300 302 300 301 297 292 291 291 292 293 295 298 298 292 289 288 285 281 278 277 277 281 288 293 298 305 308
88 83 69 62 63 71 79 96 126 145 162 173 174 169 164 182 225 251 271 289 299 303 305 304 304 305 308 310 309 305 300 299 299 291 285 289 291 288 289 292 295 295 290 294 300 294 295 302 302 300 301 299 294 291 291 292 293 294 296 296 294 294 296 296 292 285 281 280 281 286 289 293 299 304
121 117 110 112 120 129 136 148 156 158 165 175 179 178 162 172 210 253 282 291 295 298 299 302 304 304 305 304 300 296 293 292 290 284 278 278 279 282 285 287 286 283 285 294 296 289 291 296 296 295 293 289 288 291 291 292 292 292 292 292 291 292 295 297 295 289 287 286 285 286 290 292 295 297
135 133 133 135 140 143 143 145 151 159 183 244 271 274 253 229 248 273 287 292 296 301 303 304 305 302 298 295 290 286 285 283 280 278 277 274 272 274 280 284 285 283 284 289 289 284 285 289 290 290 287 281 283 288 291 291 290 289 289 288 287 287 287 288 288 286 286 286 285 287 290 290 291 293
151 146 144 143 143 142 137 124 72 323 310 314 322 328 327 316 311 311 311 310 311 311 308 304 299 292 289 289 288 287 286 284 282 282 282 280 276 275 277 279 280 281 282 285 283 280 280 281 282 284 284 282 284 287 289 289 288 288 287 284 282 282 282 284 285 285 286 285 284 285 285 283 286 288
168 160 154 147 143 146 160 121 8 349 344 352 0 2 346 329 329 331 326 320 314 307 301 297 293 291 292 293 293 293 294 293 292 291 290 289 286 283 280 277 275 276 278 280 278 275 273 275 277 277 279 282 285 286 285 285 286 287 286 284 283 281 281 283 284 284 285 284 284 285 284 284 286 284
169 161 156 152 149 151 139 104 76 48 34 34 28 4 340 333 334 335 329 320 314 307 300 298 297 297 297 298 298 300 301 299 297 296 294 292 288 285 283 279 276 275 276 276 275 271 270 271 272 273 274 276 278 280 281 283 285 286 287 287 286 283 282 283 282 282 283 283 284 285 285 285 284 282
169 163 157 151 147 139 119 92 72 55 41 28 4 344 341 348 353 349 339 328 319 311 305 303 304 303 303 302 302 303 302 299 297 297 296 294 291 288 286 284 281 278 276 276 275 272 269 268 270 271 271 269 270 273 278 282 284 285 286 286 285 285 284 282 280 281 281 281 281 282 283 283 282 283
163 158 155 151 146 135 120 98 68 43 22 4 351 347 353 4 4 352 342 334 326 320 315 310 308 308 308 306 305 305 304 300 299 299 298 297 296 294 293 292 290 286 282 280 277 274 270 267 268 269 269 267 268 270 274 280 282 282 282 282 283 285 285 282 282 282 281 281 281 280 281 285 287 289
159 156 153 151 146 132 111 71 43 31 20 11 7 4 6 8 5 358 355 350 337 326 319 315 311 310 310 309 308 309 306 301 300 300 298 296 296 297 298 295 293 292 291 288 284 278 273 268 267 267 268 269 269 271 274 277 280 281 282 281 281 282 283 284 285 285 283 284 283 281 283 286 287 287
158 154 148 140 129 115 95 70 53 45 35 26 21 15 10 8 8 4 357 350 339 327 319 316 312 310 309 308 307 306 304 302 303 302 299 296 296 297 297 294 293 296 297 296 293 286 278 272 268 266 266 267 270 274 277 277 276 277 281 281 280 280 280 282 283 283 284 285 283 282 283 282 279 279
156 148 140 133 125 112 95 79 64 48 36 28 21 16 14 11 8 1 350 341 335 328 321 315 310 308 307 305 305 304 302 301 303 302 299 297 297 297 294 290 291 295 297 297 297 293 286 279 273 270 268 269 271 272 274 275 274 274 277 281 282 282 281 281 282 283 284 284 282 282 283 280 278 279
156 145 137 129 121 109 91 76 61 44 33 25 15 10 8 3 358 357 352 343 335 328 322 316 310 307 305 304 304 303 301 302 304 305 302 300 298 296 291 289 289 292 293 294 295 294 291 287 282 279 276 274 273 270 266 267 271 276 279 281 282 283 284 284 284 284 286 285 283 284 284 283 284 284
151 145 138 128 118 106 90 75 62 45 33 23 10 2 358 353 348 347 345 339 332 329 328 325 318 312 308 305 303 302 301 302 304 304 303 300 296 292 289 287 288 289 291 292 292 292 292 289 287 285 282 279 278 274 264 259 262 271 279 281 280 281 283 286 287 289 291 290 287 286 286 285 286 285
145 142 138 129 121 108 96 86 71 53 36 21 8 357 351 347 341 338 339 337 332 332 333 330 325 319 313 307 303 302 300 299 299 300 301 299 295 292 288 286 285 286 286 287 287 289 288 285 283 281 281 281 281 280 278 268 261 265 274 280 282 283 285 290 294 295 295 296 294 290 287 286 287 289
142 140 136 129 122 114 107 98 74 53 34 15 4 355 348 343 337 335 339 340 337 335 335 331 327 323 317 310 305 302 299 297 297 298 298 297 295 292 290 289 289 288 286 284 285 285 283 280 278 276 277 282 282 281 287 288 278 271 271 274 279 287 292 296 299 298 299 302 301 299 298 294 290 290
144 141 135 128 123 120 114 98 69 49 27 7 359 352 346 344 342 341 343 345 341 336 333 330 329 327 322 315 309 305 302 301 300 300 300 300 299 296 294 293 292 291 290 288 287 285 281 277 276 273 272 275 280 283 292 296 291 283 275 270 274 283 289 291 290 290 294 298 302 307 311 305 292 282
144 139 134 129 128 126 114 89 60 38 14 359 355 351 346 346 348 349 348 343 338 335 332 330 331 329 323 317 312 308 306 305 305 305 304 304 302 299 297 295 294 294 294 293 290 288 283 279 275 271 270 271 275 283 291 292 288 286 280 274 273 276 278 279 281 283 287 291 296 308 315 311 290 266
138 133 131 132 129 123 107 78 49 23 2 352 352 354 354 354 352 350 345 340 341 342 339 334 330 327 324 321 317 312 309 308 307 307 306 304 302 300 299 297 297 296 295 293 291 290 287 283 279 276 278 281 283 286 287 285 282 282 281 279 279 277 273 270 271 274 279 284 291 300 305 301 285 255
137 134 135 133 123 115 99 61 31 7 353 348 350 356 0 1 358 353 351 351 353 352 343 332 326 322 320 321 320 315 311 310 310 311 311 309 306 305 303 300 297 294 291 290 290 289 288 289 287 285 285 286 286 284 281 276 276 281 285 288 292 290 284 279 271 265 267 275 284 286 278 268 262 252
140 137 137 131 119 108 85 43 13 354 349 350 352 357 1 1 358 356 355 355 356 352 340 331 327 322 319 321 323 319 315 313 312 312 312 311 308 306 304 301 296 292 289 286 287 289 291 293 293 289 286 283 277 270 266 266 275 286 292 294 294 294 300 302 286 262 251 256 259 252 251 255 255 241
140 138 135 129 117 100 64 26 4 355 354 354 356 1 2 358 356 357 356 352 349 342 331 327 327 325 324 325 325 322 318 315 313 312 310 308 306 303 302 301 298 295 291 287 288 291 294 295 295 290 282 275 266 258 261 269 278 286 292 298 304 307 315 321 307 254 234 239 242 237 239 250 268 269
140 137 133 125 110 82 40 14 4 1 1 359 359 1 1 358 358 358 356 350 341 329 324 325 327 327 329 329 326 323 321 319 315 311 308 307 306 303 303 304 303 301 298 295 295 298 299 299 297 288 277 273 267 259 262 273 283 287 291 302 316 326 341 5 32 112 176 210 234 238 243 252 266 276
140 137 128 117 97 61 25 10 6 4 3 2 1 0 0 0 360 357 353 346 336 331 331 332 332 332 334 333 328 324 324 322 318 313 309 308 309 308 309 310 309 307 305 301 300 303 305 305 302 292 280 275 270 263 264 272 279 285 293 310 339 23 76 82 83 89 89 75 41 320 274 260 239 156